Information on these data can be found in provided Readme document
Contact Info: Zachary Fasnacht (zachary.fasnacht@ssaihq.com); Nickolay Krotkov (nickolay.a.krotkov@nasa.gov); Lok Lamsal (lok.lamsal@nasa.gov)

FillValue: -999.
ScaleFactor: 1e15
Units: molecules/cm^2

Date(yyyy-mm-dd),City,Country,LonCenter,LatCenter,BoundingCoordinates,Median,Q1,Q3,Mean,Baseline_Median,Baseline_Q1,Baseline_Q3,Baseline_Mean,NumGoodSamples,NumTotalSamples
2015-01-01,Bremen,Germany,8.8167,53.0833,[8.3167 52.5833 9.3167 53.5833],3.681,2.026,7.456,4.567,4.653,2.738,7.258,4.993,100.0,658.0
2015-01-02,Bremen,Germany,8.8167,53.0833,[8.3167 52.5833 9.3167 53.5833],3.681,2.026,7.456,4.567,4.615,2.655,7.618,5.016,100.0,660.0
2015-01-03,Bremen,Germany,8.8167,53.0833,[8.3167 52.5833 9.3167 53.5833],4.302,2.335,7.937,4.87,5.521,2.988,8.21,5.558,89.0,659.0
2015-01-04,Bremen,Germany,8.8167,53.0833,[8.3167 52.5833 9.3167 53.5833],4.302,2.335,7.937,4.87,5.514,3.001,8.229,5.558,89.0,666.0
2015-01-05,Bremen,Germany,8.8167,53.0833,[8.3167 52.5833 9.3167 53.5833],5.536,2.769,8.625,5.499,5.785,3.22,8.489,5.819,75.0,663.0
2015-01-06,Bremen,Germany,8.8167,53.0833,[8.3167 52.5833 9.3167 53.5833],4.308,2.454,7.937,4.689,5.032,2.725,7.595,5.177,64.0,660.0
2015-01-07,Bremen,Germany,8.8167,53.0833,[8.3167 52.5833 9.3167 53.5833],4.308,2.454,7.937,4.689,5.032,2.598,7.39,5.095,64.0,660.0
2015-01-08,Bremen,Germany,8.8167,53.0833,[8.3167 52.5833 9.3167 53.5833],4.308,2.454,7.937,4.689,5.032,2.598,7.39,5.095,64.0,666.0
2015-01-09,Bremen,Germany,8.8167,53.0833,[8.3167 52.5833 9.3167 53.5833],4.484,2.748,7.016,4.616,5.004,3.171,7.002,5.118,78.0,658.0
2015-01-10,Bremen,Germany,8.8167,53.0833,[8.3167 52.5833 9.3167 53.5833],4.819,2.748,7.787,4.704,5.738,3.68,7.88,5.767,58.0,614.0
2015-01-11,Bremen,Germany,8.8167,53.0833,[8.3167 52.5833 9.3167 53.5833],4.819,2.748,7.787,4.704,5.846,3.806,7.863,5.841,58.0,621.0
2015-01-12,Bremen,Germany,8.8167,53.0833,[8.3167 52.5833 9.3167 53.5833],5.735,4.308,8.532,5.921,5.737,3.981,7.734,5.904,42.0,610.0
2015-01-13,Bremen,Germany,8.8167,53.0833,[8.3167 52.5833 9.3167 53.5833],5.735,4.308,8.532,5.921,5.46,3.924,7.334,5.73,42.0,616.0
2015-01-14,Bremen,Germany,8.8167,53.0833,[8.3167 52.5833 9.3167 53.5833],6.548,4.397,8.532,6.088,5.636,3.82,7.117,5.596,62.0,613.0
2015-01-15,Bremen,Germany,8.8167,53.0833,[8.3167 52.5833 9.3167 53.5833],5.532,3.845,7.787,5.404,5.772,4.118,7.193,5.826,35.0,620.0
2015-01-16,Bremen,Germany,8.8167,53.0833,[8.3167 52.5833 9.3167 53.5833],5.532,3.845,7.787,5.404,5.188,3.001,7.046,5.354,35.0,605.0
2015-01-17,Bremen,Germany,8.8167,53.0833,[8.3167 52.5833 9.3167 53.5833],5.532,3.845,7.787,5.404,5.286,3.002,7.027,5.378,35.0,613.0
2015-01-18,Bremen,Germany,8.8167,53.0833,[8.3167 52.5833 9.3167 53.5833],5.532,3.845,7.787,5.404,4.514,3.115,5.674,4.601,35.0,611.0
2015-01-19,Bremen,Germany,8.8167,53.0833,[8.3167 52.5833 9.3167 53.5833],5.532,3.845,7.787,5.404,4.419,2.939,8.467,5.536,35.0,611.0
2015-01-20,Bremen,Germany,8.8167,53.0833,[8.3167 52.5833 9.3167 53.5833],5.037,2.974,7.644,4.822,4.513,2.921,8.602,5.723,39.0,619.0
2015-01-21,Bremen,Germany,8.8167,53.0833,[8.3167 52.5833 9.3167 53.5833],5.037,2.974,7.644,4.822,6.029,3.242,9.05,6.197,39.0,615.0
2015-01-22,Bremen,Germany,8.8167,53.0833,[8.3167 52.5833 9.3167 53.5833],5.037,2.974,7.644,4.822,6.219,3.273,9.474,6.38,39.0,614.0
2015-01-23,Bremen,Germany,8.8167,53.0833,[8.3167 52.5833 9.3167 53.5833],5.037,2.974,7.644,4.822,6.219,3.273,9.474,6.38,39.0,614.0
2015-01-24,Bremen,Germany,8.8167,53.0833,[8.3167 52.5833 9.3167 53.5833],6.18,1.71,7.939,5.214,6.336,3.236,9.545,6.633,24.0,623.0
2015-01-25,Bremen,Germany,8.8167,53.0833,[8.3167 52.5833 9.3167 53.5833],6.18,1.71,7.939,5.214,6.336,3.236,9.545,6.633,24.0,663.0
2015-01-26,Bremen,Germany,8.8167,53.0833,[8.3167 52.5833 9.3167 53.5833],6.18,1.71,7.939,5.214,6.397,3.182,9.73,6.709,24.0,665.0
2015-01-27,Bremen,Germany,8.8167,53.0833,[8.3167 52.5833 9.3167 53.5833],6.18,1.71,7.939,5.214,7.109,3.227,10.116,7.104,24.0,670.0
2015-01-28,Bremen,Germany,8.8167,53.0833,[8.3167 52.5833 9.3167 53.5833],6.18,1.71,7.939,5.214,7.158,3.373,10.302,7.369,24.0,657.0
2015-01-29,Bremen,Germany,8.8167,53.0833,[8.3167 52.5833 9.3167 53.5833],1.459,-0.025,1.923,1.15,7.879,3.905,10.699,7.899,4.0,664.0
2015-01-30,Bremen,Germany,8.8167,53.0833,[8.3167 52.5833 9.3167 53.5833],7.098,5.643,9.246,6.91,7.601,4.369,10.26,7.658,37.0,661.0
2015-01-31,Bremen,Germany,8.8167,53.0833,[8.3167 52.5833 9.3167 53.5833],7.098,5.643,9.246,6.91,8.069,5.148,10.494,8.032,37.0,666.0
2015-02-01,Bremen,Germany,8.8167,53.0833,[8.3167 52.5833 9.3167 53.5833],3.71,2.474,7.021,4.664,7.467,4.64,10.074,7.634,69.0,651.0
2015-02-02,Bremen,Germany,8.8167,53.0833,[8.3167 52.5833 9.3167 53.5833],3.71,2.474,7.021,4.664,8.047,5.134,11.887,8.765,69.0,662.0
2015-02-03,Bremen,Germany,8.8167,53.0833,[8.3167 52.5833 9.3167 53.5833],3.71,2.474,7.021,4.664,7.585,5.105,11.43,8.503,69.0,662.0
2015-02-04,Bremen,Germany,8.8167,53.0833,[8.3167 52.5833 9.3167 53.5833],3.978,2.891,7.098,4.908,7.371,5.296,11.285,8.579,65.0,660.0
2015-02-05,Bremen,Germany,8.8167,53.0833,[8.3167 52.5833 9.3167 53.5833],3.978,2.891,7.098,4.908,7.412,5.149,11.528,8.561,65.0,668.0
2015-02-06,Bremen,Germany,8.8167,53.0833,[8.3167 52.5833 9.3167 53.5833],3.978,2.891,7.098,4.908,7.344,5.308,11.263,8.514,65.0,661.0
2015-02-07,Bremen,Germany,8.8167,53.0833,[8.3167 52.5833 9.3167 53.5833],5.041,3.014,7.92,5.49,7.292,5.259,10.795,8.028,80.0,660.0
2015-02-08,Bremen,Germany,8.8167,53.0833,[8.3167 52.5833 9.3167 53.5833],4.84,3.014,7.813,5.421,7.44,5.257,10.893,8.101,94.0,657.0
2015-02-09,Bremen,Germany,8.8167,53.0833,[8.3167 52.5833 9.3167 53.5833],4.84,3.014,7.813,5.421,7.406,5.315,10.336,8.16,94.0,663.0
2015-02-10,Bremen,Germany,8.8167,53.0833,[8.3167 52.5833 9.3167 53.5833],4.84,3.014,7.813,5.421,7.601,5.501,10.51,8.304,94.0,656.0
2015-02-11,Bremen,Germany,8.8167,53.0833,[8.3167 52.5833 9.3167 53.5833],4.84,3.014,7.813,5.421,7.17,5.142,10.246,8.049,94.0,613.0
2015-02-12,Bremen,Germany,8.8167,53.0833,[8.3167 52.5833 9.3167 53.5833],6.905,3.685,10.276,7.248,7.543,5.235,10.692,8.432,124.0,619.0
2015-02-13,Bremen,Germany,8.8167,53.0833,[8.3167 52.5833 9.3167 53.5833],6.905,3.685,10.276,7.248,7.693,5.457,10.911,8.606,124.0,607.0
2015-02-14,Bremen,Germany,8.8167,53.0833,[8.3167 52.5833 9.3167 53.5833],5.734,3.014,11.818,7.075,7.68,5.487,11.867,8.744,91.0,611.0
2015-02-15,Bremen,Germany,8.8167,53.0833,[8.3167 52.5833 9.3167 53.5833],5.734,3.136,11.255,6.921,7.512,5.162,11.98,8.687,113.0,611.0
2015-02-16,Bremen,Germany,8.8167,53.0833,[8.3167 52.5833 9.3167 53.5833],8.922,5.8,12.702,9.138,7.694,5.404,11.679,8.683,81.0,615.0
2015-02-17,Bremen,Germany,8.8167,53.0833,[8.3167 52.5833 9.3167 53.5833],8.922,5.8,12.702,9.138,7.283,5.236,9.863,7.743,81.0,599.0
2015-02-18,Bremen,Germany,8.8167,53.0833,[8.3167 52.5833 9.3167 53.5833],8.922,5.8,12.702,9.138,7.315,5.27,9.693,7.736,81.0,608.0
2015-02-19,Bremen,Germany,8.8167,53.0833,[8.3167 52.5833 9.3167 53.5833],8.922,5.398,12.7,9.328,7.393,5.32,9.73,7.818,109.0,606.0
2015-02-20,Bremen,Germany,8.8167,53.0833,[8.3167 52.5833 9.3167 53.5833],8.922,5.398,12.7,9.328,7.499,5.541,9.726,7.907,109.0,607.0
2015-02-21,Bremen,Germany,8.8167,53.0833,[8.3167 52.5833 9.3167 53.5833],9.825,6.827,13.278,10.168,7.557,5.244,9.824,7.804,124.0,617.0
2015-02-22,Bremen,Germany,8.8167,53.0833,[8.3167 52.5833 9.3167 53.5833],11.214,6.827,14.128,10.759,7.506,5.128,10.046,7.771,109.0,610.0
2015-02-23,Bremen,Germany,8.8167,53.0833,[8.3167 52.5833 9.3167 53.5833],11.893,7.789,15.163,11.302,7.182,4.88,9.671,7.421,95.0,611.0
2015-02-24,Bremen,Germany,8.8167,53.0833,[8.3167 52.5833 9.3167 53.5833],11.893,7.789,15.163,11.302,6.956,4.633,9.295,7.152,95.0,608.0
2015-02-25,Bremen,Germany,8.8167,53.0833,[8.3167 52.5833 9.3167 53.5833],11.893,7.789,15.163,11.302,6.622,4.376,9.091,6.872,95.0,614.0
2015-02-26,Bremen,Germany,8.8167,53.0833,[8.3167 52.5833 9.3167 53.5833],11.893,7.789,15.163,11.302,6.816,4.308,9.306,6.908,95.0,653.0
2015-02-27,Bremen,Germany,8.8167,53.0833,[8.3167 52.5833 9.3167 53.5833],9.825,5.8,15.349,10.485,6.143,3.797,8.761,6.447,65.0,657.0
2015-02-28,Bremen,Germany,8.8167,53.0833,[8.3167 52.5833 9.3167 53.5833],9.904,5.709,15.349,10.488,5.971,3.715,8.729,6.204,70.0,662.0
2015-03-01,Bremen,Germany,8.8167,53.0833,[8.3167 52.5833 9.3167 53.5833],9.904,5.709,15.349,10.488,5.962,3.767,8.686,6.201,70.0,651.0
2015-03-02,Bremen,Germany,8.8167,53.0833,[8.3167 52.5833 9.3167 53.5833],9.825,5.03,15.349,10.332,6.099,3.687,8.775,6.213,57.0,657.0
2015-03-03,Bremen,Germany,8.8167,53.0833,[8.3167 52.5833 9.3167 53.5833],7.396,3.662,12.45,8.448,6.034,3.7,8.953,6.42,88.0,658.0
2015-03-04,Bremen,Germany,8.8167,53.0833,[8.3167 52.5833 9.3167 53.5833],5.769,2.125,11.436,7.369,5.714,3.479,8.975,6.334,95.0,664.0
2015-03-05,Bremen,Germany,8.8167,53.0833,[8.3167 52.5833 9.3167 53.5833],6.451,2.845,9.904,7.285,5.709,3.344,8.502,6.152,126.0,651.0
2015-03-06,Bremen,Germany,8.8167,53.0833,[8.3167 52.5833 9.3167 53.5833],4.435,1.568,8.246,5.867,4.52,2.39,7.95,5.408,108.0,666.0
2015-03-07,Bremen,Germany,8.8167,53.0833,[8.3167 52.5833 9.3167 53.5833],4.435,1.568,8.246,5.867,4.151,2.193,7.548,5.115,108.0,666.0
2015-03-08,Bremen,Germany,8.8167,53.0833,[8.3167 52.5833 9.3167 53.5833],3.369,1.443,6.831,4.431,4.23,2.491,7.268,4.976,93.0,665.0
2015-03-09,Bremen,Germany,8.8167,53.0833,[8.3167 52.5833 9.3167 53.5833],3.369,1.443,6.831,4.442,4.184,2.365,7.343,4.983,94.0,672.0
2015-03-10,Bremen,Germany,8.8167,53.0833,[8.3167 52.5833 9.3167 53.5833],3.369,1.443,6.831,4.442,3.785,2.0,7.24,4.65,94.0,665.0
2015-03-11,Bremen,Germany,8.8167,53.0833,[8.3167 52.5833 9.3167 53.5833],4.598,1.568,8.0,5.266,4.125,2.139,7.499,4.826,109.0,666.0
2015-03-12,Bremen,Germany,8.8167,53.0833,[8.3167 52.5833 9.3167 53.5833],6.21,1.861,8.246,5.706,4.72,2.232,7.458,5.016,143.0,664.0
2015-03-13,Bremen,Germany,8.8167,53.0833,[8.3167 52.5833 9.3167 53.5833],6.21,1.861,8.246,5.706,4.697,2.179,7.228,4.934,143.0,672.0
2015-03-14,Bremen,Germany,8.8167,53.0833,[8.3167 52.5833 9.3167 53.5833],6.21,1.861,8.246,5.706,4.71,2.04,7.179,4.888,143.0,664.0
2015-03-15,Bremen,Germany,8.8167,53.0833,[8.3167 52.5833 9.3167 53.5833],6.084,1.787,8.246,5.552,4.538,2.042,6.981,4.751,138.0,621.0
2015-03-16,Bremen,Germany,8.8167,53.0833,[8.3167 52.5833 9.3167 53.5833],6.783,2.125,8.846,7.094,4.844,2.14,7.133,5.326,169.0,629.0
2015-03-17,Bremen,Germany,8.8167,53.0833,[8.3167 52.5833 9.3167 53.5833],6.831,2.125,10.218,7.229,4.777,2.274,7.509,5.268,160.0,618.0
2015-03-18,Bremen,Germany,8.8167,53.0833,[8.3167 52.5833 9.3167 53.5833],7.414,3.547,11.364,7.863,4.553,2.715,6.571,4.84,130.0,645.0
2015-03-19,Bremen,Germany,8.8167,53.0833,[8.3167 52.5833 9.3167 53.5833],7.921,5.701,12.193,8.609,4.571,3.274,6.726,4.962,125.0,669.0
2015-03-20,Bremen,Germany,8.8167,53.0833,[8.3167 52.5833 9.3167 53.5833],8.43,5.972,13.214,9.154,4.589,3.18,6.685,4.968,94.0,688.0
2015-03-21,Bremen,Germany,8.8167,53.0833,[8.3167 52.5833 9.3167 53.5833],8.752,7.08,13.239,10.341,4.985,3.664,8.095,6.153,100.0,670.0
2015-03-22,Bremen,Germany,8.8167,53.0833,[8.3167 52.5833 9.3167 53.5833],8.752,7.08,13.239,10.341,5.002,3.655,8.146,6.148,100.0,679.0
2015-03-23,Bremen,Germany,8.8167,53.0833,[8.3167 52.5833 9.3167 53.5833],8.752,6.873,13.214,10.042,5.178,3.615,8.773,6.568,105.0,677.0
2015-03-24,Bremen,Germany,8.8167,53.0833,[8.3167 52.5833 9.3167 53.5833],8.752,6.873,13.214,10.04,5.271,3.578,8.768,6.617,104.0,677.0
2015-03-25,Bremen,Germany,8.8167,53.0833,[8.3167 52.5833 9.3167 53.5833],8.752,6.873,13.214,10.018,5.634,3.952,8.924,6.985,105.0,682.0
2015-03-26,Bremen,Germany,8.8167,53.0833,[8.3167 52.5833 9.3167 53.5833],8.752,6.664,14.329,10.066,5.511,3.86,8.99,6.934,90.0,676.0
2015-03-27,Bremen,Germany,8.8167,53.0833,[8.3167 52.5833 9.3167 53.5833],13.528,8.946,17.342,12.449,5.486,3.741,8.999,6.79,56.0,675.0
2015-03-28,Bremen,Germany,8.8167,53.0833,[8.3167 52.5833 9.3167 53.5833],11.654,3.238,15.477,10.296,5.523,3.273,9.072,6.801,75.0,679.0
2015-03-29,Bremen,Germany,8.8167,53.0833,[8.3167 52.5833 9.3167 53.5833],3.693,1.754,14.355,7.744,4.558,3.027,9.196,6.57,86.0,684.0
2015-03-30,Bremen,Germany,8.8167,53.0833,[8.3167 52.5833 9.3167 53.5833],3.066,1.694,11.373,6.049,4.38,2.975,8.624,6.154,115.0,723.0
2015-03-31,Bremen,Germany,8.8167,53.0833,[8.3167 52.5833 9.3167 53.5833],2.177,1.308,3.424,2.66,4.159,2.932,7.079,5.505,84.0,726.0
2015-04-01,Bremen,Germany,8.8167,53.0833,[8.3167 52.5833 9.3167 53.5833],2.177,1.29,3.424,2.616,4.371,3.004,7.19,5.631,93.0,731.0
2015-04-02,Bremen,Germany,8.8167,53.0833,[8.3167 52.5833 9.3167 53.5833],2.177,1.29,3.424,2.571,4.302,2.666,7.167,5.488,92.0,699.0
2015-04-03,Bremen,Germany,8.8167,53.0833,[8.3167 52.5833 9.3167 53.5833],2.644,1.369,4.781,3.464,4.467,2.735,7.382,5.659,106.0,674.0
2015-04-04,Bremen,Germany,8.8167,53.0833,[8.3167 52.5833 9.3167 53.5833],2.644,1.369,4.781,3.464,4.427,2.706,7.256,5.513,106.0,660.0
2015-04-05,Bremen,Germany,8.8167,53.0833,[8.3167 52.5833 9.3167 53.5833],2.988,1.597,6.462,3.684,4.31,2.713,6.737,5.066,99.0,688.0
2015-04-06,Bremen,Germany,8.8167,53.0833,[8.3167 52.5833 9.3167 53.5833],2.988,1.378,6.359,3.631,4.236,2.662,6.753,5.053,103.0,671.0
2015-04-07,Bremen,Germany,8.8167,53.0833,[8.3167 52.5833 9.3167 53.5833],2.988,1.597,6.452,3.737,3.96,2.505,6.592,4.648,98.0,710.0
2015-04-08,Bremen,Germany,8.8167,53.0833,[8.3167 52.5833 9.3167 53.5833],4.077,1.903,7.005,4.592,4.468,2.865,6.329,4.741,135.0,743.0
2015-04-09,Bremen,Germany,8.8167,53.0833,[8.3167 52.5833 9.3167 53.5833],4.363,1.903,7.005,4.596,4.57,2.784,6.294,4.731,134.0,767.0
2015-04-10,Bremen,Germany,8.8167,53.0833,[8.3167 52.5833 9.3167 53.5833],3.881,1.903,7.003,4.481,4.437,2.893,6.384,4.723,143.0,771.0
2015-04-11,Bremen,Germany,8.8167,53.0833,[8.3167 52.5833 9.3167 53.5833],3.881,1.903,7.003,4.481,4.566,3.06,6.615,4.88,143.0,767.0
2015-04-12,Bremen,Germany,8.8167,53.0833,[8.3167 52.5833 9.3167 53.5833],4.099,2.114,6.921,4.649,4.609,3.157,6.567,4.906,140.0,757.0
2015-04-13,Bremen,Germany,8.8167,53.0833,[8.3167 52.5833 9.3167 53.5833],4.099,2.644,6.574,4.74,4.721,3.321,6.78,5.152,165.0,757.0
2015-04-14,Bremen,Germany,8.8167,53.0833,[8.3167 52.5833 9.3167 53.5833],4.363,2.56,6.921,4.79,4.692,3.089,6.866,5.059,146.0,765.0
2015-04-15,Bremen,Germany,8.8167,53.0833,[8.3167 52.5833 9.3167 53.5833],3.909,2.335,6.511,4.489,4.49,2.722,6.698,4.851,174.0,754.0
2015-04-16,Bremen,Germany,8.8167,53.0833,[8.3167 52.5833 9.3167 53.5833],4.05,2.404,6.573,4.584,4.354,2.65,6.303,4.708,165.0,710.0
2015-04-17,Bremen,Germany,8.8167,53.0833,[8.3167 52.5833 9.3167 53.5833],4.741,2.621,7.903,5.96,4.79,2.92,6.778,5.257,200.0,771.0
2015-04-18,Bremen,Germany,8.8167,53.0833,[8.3167 52.5833 9.3167 53.5833],4.404,2.463,7.587,5.796,4.642,2.72,6.633,5.049,184.0,765.0
2015-04-19,Bremen,Germany,8.8167,53.0833,[8.3167 52.5833 9.3167 53.5833],4.404,2.463,7.587,5.796,4.619,2.819,6.651,5.102,184.0,806.0
2015-04-20,Bremen,Germany,8.8167,53.0833,[8.3167 52.5833 9.3167 53.5833],3.909,2.283,7.037,5.411,4.408,2.702,6.494,4.966,196.0,808.0
2015-04-21,Bremen,Germany,8.8167,53.0833,[8.3167 52.5833 9.3167 53.5833],4.404,2.463,8.023,5.734,4.542,2.74,6.794,5.041,203.0,833.0
2015-04-22,Bremen,Germany,8.8167,53.0833,[8.3167 52.5833 9.3167 53.5833],4.419,2.488,8.36,5.866,4.55,2.749,6.912,5.087,219.0,789.0
2015-04-23,Bremen,Germany,8.8167,53.0833,[8.3167 52.5833 9.3167 53.5833],3.679,2.335,8.023,5.587,4.172,2.617,6.545,4.818,182.0,766.0
2015-04-24,Bremen,Germany,8.8167,53.0833,[8.3167 52.5833 9.3167 53.5833],3.679,2.335,8.023,5.587,4.015,2.677,6.487,4.746,182.0,744.0
2015-04-25,Bremen,Germany,8.8167,53.0833,[8.3167 52.5833 9.3167 53.5833],3.909,2.275,8.277,5.746,4.096,2.717,6.568,4.869,173.0,748.0
2015-04-26,Bremen,Germany,8.8167,53.0833,[8.3167 52.5833 9.3167 53.5833],3.909,2.276,8.023,5.735,4.085,2.617,6.454,4.881,179.0,757.0
2015-04-27,Bremen,Germany,8.8167,53.0833,[8.3167 52.5833 9.3167 53.5833],3.854,2.276,8.937,5.901,3.878,2.602,6.671,4.861,163.0,753.0
2015-04-28,Bremen,Germany,8.8167,53.0833,[8.3167 52.5833 9.3167 53.5833],5.489,2.275,10.112,6.637,3.981,2.428,6.252,4.583,134.0,758.0
2015-04-29,Bremen,Germany,8.8167,53.0833,[8.3167 52.5833 9.3167 53.5833],6.981,2.933,10.468,7.607,4.329,2.57,6.248,4.764,131.0,755.0
2015-04-30,Bremen,Germany,8.8167,53.0833,[8.3167 52.5833 9.3167 53.5833],8.937,5.907,12.993,9.227,4.496,2.948,6.403,4.909,104.0,765.0
2015-05-01,Bremen,Germany,8.8167,53.0833,[8.3167 52.5833 9.3167 53.5833],8.801,5.907,12.839,9.164,4.464,2.89,6.285,4.81,108.0,804.0
2015-05-02,Bremen,Germany,8.8167,53.0833,[8.3167 52.5833 9.3167 53.5833],6.981,4.895,8.841,6.58,3.775,2.573,5.28,4.007,73.0,752.0
2015-05-03,Bremen,Germany,8.8167,53.0833,[8.3167 52.5833 9.3167 53.5833],5.022,2.405,7.741,5.13,3.687,2.341,5.397,4.021,110.0,757.0
2015-05-04,Bremen,Germany,8.8167,53.0833,[8.3167 52.5833 9.3167 53.5833],5.022,2.405,7.741,5.13,3.619,2.284,5.264,3.919,110.0,706.0
2015-05-05,Bremen,Germany,8.8167,53.0833,[8.3167 52.5833 9.3167 53.5833],5.773,2.58,8.025,5.685,3.679,2.336,5.166,3.921,89.0,686.0
2015-05-06,Bremen,Germany,8.8167,53.0833,[8.3167 52.5833 9.3167 53.5833],3.073,2.23,6.998,4.534,3.344,2.281,4.961,3.819,91.0,668.0
2015-05-07,Bremen,Germany,8.8167,53.0833,[8.3167 52.5833 9.3167 53.5833],2.774,2.178,5.146,3.856,3.315,1.995,4.748,3.6,75.0,711.0
2015-05-08,Bremen,Germany,8.8167,53.0833,[8.3167 52.5833 9.3167 53.5833],2.774,2.093,4.269,3.474,3.381,2.108,4.815,3.735,107.0,699.0
2015-05-09,Bremen,Germany,8.8167,53.0833,[8.3167 52.5833 9.3167 53.5833],2.774,2.093,4.269,3.474,3.451,2.148,4.853,3.801,107.0,738.0
2015-05-10,Bremen,Germany,8.8167,53.0833,[8.3167 52.5833 9.3167 53.5833],2.763,2.093,4.269,3.455,3.388,2.315,4.987,3.72,108.0,767.0
2015-05-11,Bremen,Germany,8.8167,53.0833,[8.3167 52.5833 9.3167 53.5833],2.742,2.059,4.269,3.403,3.362,2.314,4.895,3.63,102.0,785.0
2015-05-12,Bremen,Germany,8.8167,53.0833,[8.3167 52.5833 9.3167 53.5833],2.817,2.093,4.922,3.802,3.355,2.241,4.979,3.674,110.0,796.0
2015-05-13,Bremen,Germany,8.8167,53.0833,[8.3167 52.5833 9.3167 53.5833],2.749,2.059,4.269,3.503,3.406,2.295,4.913,3.682,103.0,806.0
2015-05-14,Bremen,Germany,8.8167,53.0833,[8.3167 52.5833 9.3167 53.5833],2.742,1.88,4.158,3.314,3.522,2.381,5.008,3.768,96.0,817.0
2015-05-15,Bremen,Germany,8.8167,53.0833,[8.3167 52.5833 9.3167 53.5833],2.749,2.059,4.158,3.338,3.692,2.538,5.17,3.941,102.0,838.0
2015-05-16,Bremen,Germany,8.8167,53.0833,[8.3167 52.5833 9.3167 53.5833],2.676,1.88,3.77,3.162,3.784,2.717,5.29,4.055,103.0,862.0
2015-05-17,Bremen,Germany,8.8167,53.0833,[8.3167 52.5833 9.3167 53.5833],2.694,2.093,3.673,3.073,3.717,2.572,5.328,3.994,134.0,882.0
2015-05-18,Bremen,Germany,8.8167,53.0833,[8.3167 52.5833 9.3167 53.5833],2.817,2.094,3.86,3.346,3.657,2.518,5.316,4.0,97.0,839.0
2015-05-19,Bremen,Germany,8.8167,53.0833,[8.3167 52.5833 9.3167 53.5833],2.817,2.094,3.86,3.346,3.751,2.482,5.364,4.037,97.0,865.0
2015-05-20,Bremen,Germany,8.8167,53.0833,[8.3167 52.5833 9.3167 53.5833],2.817,2.094,3.86,3.346,3.562,2.116,5.418,3.901,97.0,853.0
2015-05-21,Bremen,Germany,8.8167,53.0833,[8.3167 52.5833 9.3167 53.5833],2.817,2.094,3.77,3.335,3.56,2.109,5.129,3.835,84.0,897.0
2015-05-22,Bremen,Germany,8.8167,53.0833,[8.3167 52.5833 9.3167 53.5833],2.817,2.094,3.77,3.335,3.708,2.407,5.585,4.108,84.0,883.0
2015-05-23,Bremen,Germany,8.8167,53.0833,[8.3167 52.5833 9.3167 53.5833],2.826,2.333,4.099,3.727,3.616,2.399,5.467,4.075,52.0,935.0
2015-05-24,Bremen,Germany,8.8167,53.0833,[8.3167 52.5833 9.3167 53.5833],2.826,2.333,4.099,3.715,3.668,2.417,5.509,4.108,53.0,919.0
2015-05-25,Bremen,Germany,8.8167,53.0833,[8.3167 52.5833 9.3167 53.5833],2.826,2.333,4.759,3.755,3.54,2.384,5.564,4.053,52.0,947.0
2015-05-26,Bremen,Germany,8.8167,53.0833,[8.3167 52.5833 9.3167 53.5833],2.826,2.333,4.759,3.755,3.392,2.288,5.123,3.86,52.0,976.0
2015-05-27,Bremen,Germany,8.8167,53.0833,[8.3167 52.5833 9.3167 53.5833],2.694,2.094,3.46,2.833,3.412,2.276,5.128,3.804,44.0,996.0
2015-05-28,Bremen,Germany,8.8167,53.0833,[8.3167 52.5833 9.3167 53.5833],2.734,2.045,3.821,2.946,3.436,2.079,5.216,3.745,59.0,1037.0
2015-05-29,Bremen,Germany,8.8167,53.0833,[8.3167 52.5833 9.3167 53.5833],2.734,2.045,3.821,2.946,3.355,2.11,4.982,3.659,59.0,1042.0
2015-05-30,Bremen,Germany,8.8167,53.0833,[8.3167 52.5833 9.3167 53.5833],2.676,1.406,3.518,2.648,3.102,1.912,4.812,3.461,60.0,1080.0
2015-05-31,Bremen,Germany,8.8167,53.0833,[8.3167 52.5833 9.3167 53.5833],2.094,1.07,3.335,2.32,2.997,1.853,4.606,3.302,83.0,1087.0
2015-06-01,Bremen,Germany,8.8167,53.0833,[8.3167 52.5833 9.3167 53.5833],1.406,1.018,3.335,1.904,3.003,1.869,4.734,3.33,54.0,1123.0
2015-06-02,Bremen,Germany,8.8167,53.0833,[8.3167 52.5833 9.3167 53.5833],1.406,1.018,3.335,1.904,3.093,2.001,4.649,3.326,54.0,1191.0
2015-06-03,Bremen,Germany,8.8167,53.0833,[8.3167 52.5833 9.3167 53.5833],2.347,1.07,4.027,2.811,3.171,1.98,4.778,3.434,62.0,1225.0
2015-06-04,Bremen,Germany,8.8167,53.0833,[8.3167 52.5833 9.3167 53.5833],2.685,1.406,4.048,2.981,3.077,1.941,4.819,3.38,100.0,1288.0
2015-06-05,Bremen,Germany,8.8167,53.0833,[8.3167 52.5833 9.3167 53.5833],2.685,1.406,4.048,2.981,3.077,1.928,4.751,3.381,100.0,1257.0
2015-06-06,Bremen,Germany,8.8167,53.0833,[8.3167 52.5833 9.3167 53.5833],2.685,1.406,4.048,2.981,2.947,1.831,4.486,3.222,100.0,1273.0
2015-06-07,Bremen,Germany,8.8167,53.0833,[8.3167 52.5833 9.3167 53.5833],2.685,1.406,4.048,2.981,2.904,1.762,4.453,3.131,100.0,1247.0
2015-06-08,Bremen,Germany,8.8167,53.0833,[8.3167 52.5833 9.3167 53.5833],2.685,1.406,4.048,3.029,2.729,1.538,4.0,2.888,106.0,1261.0
2015-06-09,Bremen,Germany,8.8167,53.0833,[8.3167 52.5833 9.3167 53.5833],2.653,1.472,3.903,2.929,2.667,1.482,3.922,2.781,117.0,1198.0
2015-06-10,Bremen,Germany,8.8167,53.0833,[8.3167 52.5833 9.3167 53.5833],2.653,1.472,3.936,2.955,2.753,1.46,3.942,2.807,119.0,1197.0
2015-06-11,Bremen,Germany,8.8167,53.0833,[8.3167 52.5833 9.3167 53.5833],2.653,1.472,3.936,2.955,2.697,1.472,3.898,2.755,119.0,1232.0
2015-06-12,Bremen,Germany,8.8167,53.0833,[8.3167 52.5833 9.3167 53.5833],2.596,1.403,3.903,2.915,2.704,1.475,3.929,2.774,104.0,1198.0
2015-06-13,Bremen,Germany,8.8167,53.0833,[8.3167 52.5833 9.3167 53.5833],2.596,1.403,3.903,2.915,2.682,1.488,4.079,2.788,104.0,1244.0
2015-06-14,Bremen,Germany,8.8167,53.0833,[8.3167 52.5833 9.3167 53.5833],2.685,1.698,3.936,3.055,2.768,1.611,4.001,2.842,96.0,1198.0
2015-06-15,Bremen,Germany,8.8167,53.0833,[8.3167 52.5833 9.3167 53.5833],3.154,2.321,4.969,3.735,2.828,1.647,4.256,2.961,71.0,1239.0
2015-06-16,Bremen,Germany,8.8167,53.0833,[8.3167 52.5833 9.3167 53.5833],3.154,2.34,5.075,3.819,2.797,1.57,4.155,2.913,69.0,1204.0
2015-06-17,Bremen,Germany,8.8167,53.0833,[8.3167 52.5833 9.3167 53.5833],3.154,2.34,5.075,3.819,2.738,1.487,4.127,2.86,69.0,1245.0
2015-06-18,Bremen,Germany,8.8167,53.0833,[8.3167 52.5833 9.3167 53.5833],3.174,2.182,4.706,3.568,2.657,1.397,3.956,2.686,70.0,1220.0
2015-06-19,Bremen,Germany,8.8167,53.0833,[8.3167 52.5833 9.3167 53.5833],2.808,2.022,4.788,3.77,2.466,1.373,3.977,2.733,32.0,1120.0
2015-06-20,Bremen,Germany,8.8167,53.0833,[8.3167 52.5833 9.3167 53.5833],2.808,2.022,4.788,3.77,2.458,1.291,3.836,2.655,32.0,1126.0
2015-06-21,Bremen,Germany,8.8167,53.0833,[8.3167 52.5833 9.3167 53.5833],2.808,2.022,4.788,3.77,2.378,1.38,3.775,2.615,32.0,1080.0
2015-06-22,Bremen,Germany,8.8167,53.0833,[8.3167 52.5833 9.3167 53.5833],3.849,2.499,5.157,4.032,2.693,1.433,3.858,2.695,47.0,1113.0
2015-06-23,Bremen,Germany,8.8167,53.0833,[8.3167 52.5833 9.3167 53.5833],2.938,2.092,4.706,3.396,2.598,1.301,3.901,2.627,73.0,1100.0
2015-06-24,Bremen,Germany,8.8167,53.0833,[8.3167 52.5833 9.3167 53.5833],3.223,2.106,4.319,3.406,2.259,1.112,3.548,2.416,75.0,1166.0
2015-06-25,Bremen,Germany,8.8167,53.0833,[8.3167 52.5833 9.3167 53.5833],2.446,1.345,3.852,2.68,2.194,1.094,3.479,2.334,105.0,1145.0
2015-06-26,Bremen,Germany,8.8167,53.0833,[8.3167 52.5833 9.3167 53.5833],2.722,1.556,4.046,2.907,2.354,1.229,3.562,2.404,120.0,1149.0
2015-06-27,Bremen,Germany,8.8167,53.0833,[8.3167 52.5833 9.3167 53.5833],3.089,1.651,4.014,3.065,2.342,1.228,3.468,2.369,152.0,1181.0